Find Starlink 4331

NORAD ID: 53046 Int'l Des: 2022-077 Owner: SPXS Country: US Constellation: starlink operational
LEOCIRCULARRETROGRADESSO

当前视图

正在加载3D地球...

About Starlink 4331

Starlink 4331 (NORAD 53046) is a starlink constellation satellite (v1.5) launched Jul 11, 2022 by SPXS of US. It operates in LEO, CIRCULAR, RETROGRADE, SSO orbit with a mass of 297.00 kg.

即将过境

Passes for default location (London). Set your location on the main map for personalized predictions.

高度历史

Loading altitude history...

两行轨道根数

1 53046U 22077D 26264.20512879 -.00006060 00000-0 -18543-3 0 9998
2 53046 97.2838 79.8968 0002052 100.2135 259.9339 15.33460817230468
Epoch: Sep 21, 2026 • Age: 13 hours

当前状态

高度 472.3 km
远地点 / 近地点 N/A
速度 7.64 km/s
星下点 49.76°N, 1.79°W
发射日期 Jul 11, 2022
运行时间 4.1 years
类型 internet

技术详情

分类 Payload
质量 297.00 kg
干质量 275.00 kg
长度 0.20 m
跨度 9.00 m
形状 ? Box + pan
制造商 SPXS
平台类型 Starlink
阶段状态 In Orbit
所有者/国家 SPXS/US

Most Searched